[[{"header":{"parameterUnit":"m.s-1","parameterCategory":2,"la1":30.2991,"la2":30.254,"lo1":-89.0895,"lo2":-89.0444,"dy":0.0017,"dx":0.0017,"nx":28,"ny":28,"refTime":"2024-11-30T09:00:00:Z","depth":"0","parameterNumber":2,"parameterNumberName":"U-component_of_CURRENTS"},"data":[0,0,0,0,0,0,0,0,0,0,0,0,0,0,0,0,0,0,0,0,0,0,0,0,0,0,0,0,0,0,0,0,0,0,0,0,0,0,0,0,0,0,0,0,0,0,0,0,0,0,0,0,0,0,0,0,0,0,-0.2558,-0.2558,0,-0.2562,-0.2561,-0.2561,-0.252,-0.2519,-0.2518,-0.2517,-0.2474,-0.2473,-0.2473,0,0,0,0,0,0,0,0,0,0,0,0,0,-0.2518,-0.2519,-0.2558,-0.2558,-0.2559,-0.2562,-0.2561,-0.2561,-0.252,-0.2519,-0.2518,-0.2517,-0.2474,-0.2473,-0.2473,0,0,0,0,0,0,0,0,0,0,0,0,0,-0.2528,-0.2519,-0.2558,-0.254,-0.2539,-0.2562,-0.2561,-0.2561,-0.252,-0.2519,-0.2518,-0.2516,-0.2474,-0.2473,-0.2473,-0.2497,0,0,-0.2471,-0.2471,0,0,0,0,0,0,0,0,-0.2527,-0.2529,-0.2543,-0.2542,-0.254,-0.2541,-0.2531,-0.2538,-0.2521,-0.2525,-0.2517,-0.2516,-0.2495,-0.2492,-0.2493,-0.2494,-0.2493,-0.2471,-0.2471,-0.2471,-0.2471,0,0,0,0,0,0,0,-0.2526,-0.2528,-0.2557,-0.2543,-0.2542,-0.2533,-0.2533,-0.2533,-0.2514,-0.2524,-0.2522,-0.2527,-0.2493,-0.2494,-0.2491,-0.2492,-0.2471,-0.2471,-0.2471,-0.247,-0.2485,-0.2486,0,0,0,0,0,0,-0.2533,-0.2528,-0.2557,-0.2557,-0.2533,-0.2535,-0.2535,-0.254,-0.2515,-0.2511,-0.2528,-0.2525,-0.2495,-0.2492,-0.249,-0.2497,-0.2471,-0.247,-0.247,-0.2484,-0.2485,-0.2486,0,0,0,0,0,0,-0.2532,-0.2536,-0.2557,-0.2544,-0.2547,-0.2538,-0.2544,-0.2541,-0.2537,-0.2519,-0.2513,-0.2527,-0.2494,-0.249,-0.2489,-0.2496,-0.247,-0.247,-0.2483,-0.2485,-0.2485,-0.2525,0,0,0,0,0,0,-0.2531,-0.2535,-0.2536,-0.2545,-0.2548,-0.257,-0.2546,-0.2542,-0.2544,-0.254,-0.2517,-0.2512,-0.2493,-0.249,-0.2488,-0.2495,-0.2469,-0.2483,-0.2484,-0.2485,-0.2523,-0.2527,-0.2531,0,0,0,0,0,-0.253,-0.2539,-0.2536,-0.254,-0.2551,-0.2571,-0.2572,-0.2559,-0.2545,-0.2549,-0.2533,-0.2512,-0.2496,-0.249,-0.2488,-0.2495,-0.2482,-0.2484,-0.2485,-0.2521,-0.2526,-0.2531,0,0,0,0,0,0,-0.2521,-0.2536,-0.2533,-0.2546,-0.2558,-0.2565,-0.2567,-0.2564,-0.2556,-0.2547,-0.2525,-0.252,-0.252,-0.2507,-0.2501,-0.2503,-0.2485,-0.2486,-0.2512,-0.2517,-0.2521,-0.2518,-0.2469,0,0,0,0,0,-0.2522,-0.2528,-0.2547,-0.2555,-0.2564,-0.2567,-0.2572,-0.2569,-0.2567,-0.2562,-0.2548,-0.2533,-0.2528,-0.2521,-0.2514,-0.252,-0.2501,-0.2522,-0.2527,-0.253,-0.2526,-0.2514,-0.2517,-0.2491,-0.2491,-0.2491,0,0,-0.2519,-0.2529,-0.2531,-0.2553,-0.2558,-0.2577,-0.2565,-0.2578,-0.2587,-0.256,-0.256,-0.255,-0.2534,-0.2537,-0.2535,-0.2524,-0.2527,-0.2532,-0.2535,-0.2529,-0.2516,-0.2519,-0.2521,-0.2492,-0.2492,-0.2492,0,0,-0.2522,-0.2529,-0.2538,-0.2554,-0.2573,-0.2581,-0.2588,-0.2601,-0.2597,-0.2607,-0.2587,-0.2583,-0.2576,-0.2565,-0.2559,-0.2585,-0.2552,-0.2581,-0.2596,-0.2585,-0.2587,-0.2588,-0.2565,-0.2564,-0.258,-0.258,-0.258,0,-0.2515,-0.2531,-0.2543,-0.2563,-0.2575,-0.2586,-0.2603,-0.2612,-0.262,-0.2619,-0.2609,-0.26,-0.2589,-0.2589,-0.2595,-0.2593,-0.2575,-0.2578,-0.2589,-0.259,-0.2591,-0.2567,-0.2565,-0.2582,-0.2582,-0.2582,-0.2582,0,-0.2529,-0.2543,-0.2553,-0.2578,-0.2596,-0.2612,-0.2635,-0.2646,-0.2645,-0.2648,-0.265,-0.2638,-0.2628,-0.2629,-0.2619,-0.2621,-0.2603,-0.2599,-0.2576,-0.2596,-0.257,-0.2567,-0.2585,-0.2585,-0.2584,-0.2584,0,0,-0.2503,-0.2551,-0.2552,-0.2564,-0.2603,-0.2618,-0.2644,-0.2665,-0.2673,-0.2678,-0.268,-0.2679,-0.2667,-0.266,-0.2648,-0.264,-0.2634,-0.2622,-0.262,-0.2596,-0.2597,-0.2497,-0.2485,-0.2629,-0.2629,-0.2629,-0.2576,0,-0.2503,-0.2535,-0.2563,-0.259,-0.2606,-0.2636,-0.2658,-0.2679,-0.269,-0.2699,-0.2692,-0.2691,-0.2681,-0.2674,-0.2667,-0.2646,-0.2629,-0.2647,-0.2583,-0.258,-0.2488,-0.2479,-0.2364,-0.2299,-0.2573,-0.2573,-0.2573,0,-0.2497,-0.2521,-0.2546,-0.2589,-0.2599,-0.2619,-0.2649,-0.2674,-0.2699,-0.2707,-0.271,-0.2706,-0.2701,-0.2687,-0.2654,-0.2666,-0.2631,-0.2611,-0.2608,-0.2497,-0.2476,-0.2324,-0.2284,-0.2258,-0.2568,-0.2569,-0.2569,0,-0.2451,-0.2503,-0.2517,-0.2533,-0.2589,-0.2601,-0.2628,-0.2663,-0.2676,-0.2707,-0.2709,-0.2713,-0.27,-0.2677,-0.2634,-0.2645,-0.2585,-0.2596,-0.2471,-0.2463,-0.2341,-0.2322,-0.2262,-0.2559,-0.256,-0.256,-0.256,0,-0.2427,-0.2436,-0.2495,-0.2501,-0.2513,-0.257,-0.2582,-0.2616,-0.2654,-0.2657,-0.2699,-0.2688,-0.2695,-0.2663,-0.2633,-0.2531,-0.258,-0.246,-0.2438,-0.2351,-0.2334,-0.2286,-0.2312,-0.2558,-0.2558,-0.2559,-0.2559,0,-0.2356,-0.2402,-0.2416,-0.2472,-0.2486,-0.2489,-0.2541,-0.2548,-0.2606,-0.2611,-0.2618,-0.2659,-0.2617,-0.26,-0.2555,-0.2503,-0.2381,-0.2387,-0.2275,-0.2239,-0.2089,-0.2122,-0.2036,-0.198,-0.2242,-0.2239,-0.2237,0,-0.2317,-0.2317,-0.2367,-0.2366,-0.2384,-0.2407,-0.2415,-0.2496,-0.2511,-0.2574,-0.2563,-0.2555,-0.2503,-0.2409,-0.2333,-0.2241,-0.2255,-0.2085,-0.2081,-0.2047,-0.2069,-0.2104,-0.2067,-0.1942,-0.1938,-0.1934,-0.1931,0,-0.2224,-0.2242,-0.2251,-0.2256,-0.2263,-0.2278,-0.2307,-0.2315,-0.2403,-0.2411,-0.2409,-0.2379,-0.2306,-0.2162,-0.2058,-0.1998,-0.2022,-0.2001,-0.1999,-0.1845,-0.1847,-0.1792,-0.2019,-0.1897,-0.19,-0.1903,-0.1905,-0.1906,-0.2131,-0.2113,-0.2125,-0.2116,-0.2129,-0.2124,-0.2085,-0.2135,-0.2131,-0.2115,-0.2195,-0.2112,-0.2035,-0.1865,-0.18,-0.166,-0.1756,-0.1611,-0.1659,-0.1701,-0.1624,-0.1763,-0.1597,-0.1598,-0.16,-0.1601,-0.1602,0,-0.2,-0.1994,-0.1982,-0.1964,-0.192,-0.198,-0.1981,-0.1922,-0.1863,-0.1893,-0.1857,-0.1779,-0.162,-0.1573,-0.1439,-0.1352,-0.1341,-0.1332,-0.1371,-0.1354,-0.1486,-0.1447,-0.12,-0.12,-0.12,-0.12,-0.12,-0.12,-0.1928,-0.1869,-0.1866,-0.1751,-0.1734,-0.1628,-0.1594,-0.1543,-0.1532,-0.1444,-0.1423,-0.1454,-0.1424,-0.1442,-0.1295,-0.1219,-0.1212,-0.1156,-0.1213,-0.1331,-0.1363,-0.1392,-0.1361,-0.11,-0.11,-0.1016,-0.1016,-0.1016]},{"header":{"parameterUnit":"m.s-1","parameterCategory":2,"la1":30.2991,"la2":30.254,"lo1":-89.0895,"lo2":-89.0444,"dy":0.0017,"dx":0.0017,"nx":28,"ny":28,"refTime":"2024-11-30T09:00:00:Z","depth":"0","parameterNumber":3,"parameterNumberName":"V-component_of_CURRENTS"},"data":[0,0,0,0,0,0,0,0,0,0,0,0,0,0,0,0,0,0,0,0,0,0,0,0,0,0,0,0,0,0,0,0,0,0,0,0,0,0,0,0,0,0,0,0,0,0,0,0,0,0,0,0,0,0,0,0,0,0,-0.0568,-0.0567,0,-0.0492,-0.0491,-0.049,-0.0441,-0.0441,-0.0441,-0.0441,-0.032,-0.0317,-0.0314,0,0,0,0,0,0,0,0,0,0,0,0,0,-0.0613,-0.0612,-0.0568,-0.0567,-0.0566,-0.0492,-0.0491,-0.049,-0.0441,-0.0441,-0.0441,-0.0441,-0.0321,-0.0317,-0.0314,0,0,0,0,0,0,0,0,0,0,0,0,0,-0.057,-0.0612,-0.0568,-0.0534,-0.053,-0.0492,-0.0491,-0.0489,-0.0441,-0.0441,-0.0441,-0.0441,-0.0322,-0.0318,-0.0313,-0.029,0,0,-0.0299,-0.0297,0,0,0,0,0,0,0,0,-0.0572,-0.0568,-0.054,-0.0536,-0.0532,-0.0477,-0.0462,-0.0421,-0.0441,-0.0474,-0.0441,-0.044,-0.0369,-0.0361,-0.0346,-0.0285,-0.028,-0.0299,-0.0296,-0.0294,-0.0293,0,0,0,0,0,0,0,-0.0575,-0.0571,-0.0537,-0.0539,-0.0534,-0.0502,-0.0496,-0.0454,-0.0422,-0.0471,-0.0468,-0.0461,-0.0366,-0.0351,-0.0343,-0.0278,-0.0299,-0.0295,-0.0292,-0.029,-0.0177,-0.0177,0,0,0,0,0,0,-0.059,-0.0574,-0.0539,-0.0535,-0.0553,-0.0502,-0.0495,-0.0494,-0.0424,-0.0413,-0.0461,-0.0459,-0.0358,-0.0348,-0.0338,-0.0308,-0.0294,-0.029,-0.0287,-0.0178,-0.0177,-0.0177,0,0,0,0,0,0,-0.0592,-0.0588,-0.0542,-0.0553,-0.0545,-0.0502,-0.0501,-0.0493,-0.0477,-0.0417,-0.0405,-0.0455,-0.0358,-0.0345,-0.0302,-0.0303,-0.0288,-0.0283,-0.0178,-0.0178,-0.0177,-0.0248,0,0,0,0,0,0,-0.0594,-0.0589,-0.0594,-0.0554,-0.0545,-0.0525,-0.0501,-0.0491,-0.0474,-0.047,-0.0407,-0.0396,-0.0357,-0.0309,-0.0297,-0.0297,-0.028,-0.0178,-0.0178,-0.0177,-0.0246,-0.025,-0.0253,0,0,0,0,0,-0.0595,-0.0604,-0.0595,-0.059,-0.0553,-0.0525,-0.0518,-0.0485,-0.0474,-0.0469,-0.0427,-0.0398,-0.0298,-0.0305,-0.0292,-0.029,-0.0179,-0.0178,-0.0177,-0.0244,-0.0249,-0.0253,0,0,0,0,0,0,-0.0622,-0.0599,-0.0588,-0.0588,-0.0561,-0.0518,-0.0512,-0.049,-0.0453,-0.045,-0.0394,-0.0379,-0.0343,-0.0304,-0.0314,-0.0254,-0.0233,-0.023,-0.0289,-0.0293,-0.0296,-0.0318,-0.0276,0,0,0,0,0,-0.0632,-0.0635,-0.0602,-0.0602,-0.0593,-0.0554,-0.0539,-0.0518,-0.0481,-0.0465,-0.042,-0.0372,-0.0329,-0.0303,-0.026,-0.0227,-0.0192,-0.0216,-0.0219,-0.0223,-0.023,-0.0194,-0.0196,-0.0175,-0.0175,-0.0175,0,0,-0.0642,-0.063,-0.0631,-0.0608,-0.0586,-0.058,-0.0544,-0.0528,-0.0519,-0.0457,-0.0431,-0.0384,-0.0324,-0.0289,-0.0268,-0.0257,-0.0205,-0.0222,-0.0226,-0.0231,-0.0194,-0.0196,-0.0198,-0.0175,-0.0175,-0.0175,0,0,-0.0669,-0.0654,-0.0668,-0.0651,-0.0627,-0.0601,-0.06,-0.056,-0.0538,-0.0506,-0.0461,-0.0419,-0.0352,-0.0311,-0.0281,-0.0278,-0.023,-0.0261,-0.0295,-0.026,-0.0262,-0.0263,-0.0206,-0.0201,-0.026,-0.0261,-0.0261,0,-0.0683,-0.0696,-0.0666,-0.0673,-0.0666,-0.0616,-0.0627,-0.0595,-0.0545,-0.053,-0.0508,-0.0416,-0.0364,-0.0322,-0.0318,-0.0288,-0.0254,-0.0286,-0.0267,-0.0268,-0.0268,-0.0209,-0.0203,-0.0264,-0.0264,-0.0263,-0.0263,0,-0.0721,-0.0729,-0.0734,-0.073,-0.0716,-0.0715,-0.0674,-0.0654,-0.0621,-0.0587,-0.0541,-0.0469,-0.0417,-0.0389,-0.035,-0.0323,-0.0293,-0.0281,-0.0263,-0.0275,-0.0211,-0.0204,-0.0269,-0.0268,-0.0267,-0.0266,0,0,-0.0759,-0.0763,-0.0765,-0.0779,-0.075,-0.0745,-0.0729,-0.0701,-0.0695,-0.0634,-0.0618,-0.0537,-0.0499,-0.0462,-0.0405,-0.0367,-0.0327,-0.0329,-0.0326,-0.0284,-0.0235,-0.017,-0.0155,-0.0319,-0.0318,-0.0318,-0.0184,0,-0.0799,-0.0838,-0.0821,-0.0848,-0.0865,-0.082,-0.081,-0.0776,-0.0733,-0.07,-0.0622,-0.0582,-0.0525,-0.05,-0.0455,-0.0359,-0.0315,-0.0363,-0.0218,-0.0213,-0.0165,-0.0147,-0.0111,0.0014,-0.0177,-0.0176,-0.0175,0,-0.0844,-0.0866,-0.0908,-0.092,-0.0922,-0.0924,-0.0906,-0.089,-0.0826,-0.0792,-0.0736,-0.0671,-0.0592,-0.0552,-0.0403,-0.0438,-0.0347,-0.0272,-0.0265,-0.0179,-0.0136,-0.0005,0.0035,0.0162,-0.0163,-0.0164,-0.0165,0,-0.0899,-0.0926,-0.0967,-0.097,-0.097,-0.0976,-0.0968,-0.0921,-0.0909,-0.085,-0.0827,-0.0731,-0.0666,-0.056,-0.0388,-0.0403,-0.0218,-0.0219,-0.0072,-0.0065,0.0009,0.0021,0.0177,-0.0129,-0.013,-0.013,-0.013,0,-0.0955,-0.0985,-0.0998,-0.1021,-0.1063,-0.1037,-0.1058,-0.1032,-0.0988,-0.0966,-0.0881,-0.0825,-0.0668,-0.0535,-0.0403,-0.0197,-0.0225,-0.007,-0.0029,-0.0011,-0.0003,0.0146,0.0188,-0.0125,-0.0126,-0.0127,-0.0128,0,-0.101,-0.1019,-0.1067,-0.1085,-0.1093,-0.1121,-0.1121,-0.1127,-0.1079,-0.1044,-0.1027,-0.0884,-0.0701,-0.0525,-0.0316,-0.0198,0.0067,0.0051,0.0078,0.0119,0.0352,0.0388,0.0586,0.0662,0.0221,0.0224,0.0226,0,-0.1043,-0.1075,-0.112,-0.115,-0.1161,-0.1193,-0.1208,-0.1178,-0.1169,-0.1063,-0.1041,-0.0864,-0.0708,-0.0371,-0.0139,0.011,0.0195,0.0282,0.0253,0.0384,0.0453,0.0473,0.0522,0.0336,0.0339,0.0341,0.0343,0,-0.1099,-0.1112,-0.1151,-0.1217,-0.125,-0.1285,-0.1295,-0.1297,-0.1235,-0.1171,-0.1031,-0.0897,-0.0562,-0.0249,0.0069,0.0216,0.0378,0.0335,0.0459,0.0551,0.0593,0.0679,0.0243,0.0363,0.0361,0.0359,0.0358,0.0358,-0.1128,-0.1172,-0.1219,-0.1277,-0.132,-0.1349,-0.1352,-0.1327,-0.1279,-0.1133,-0.1012,-0.0754,-0.0351,0.0112,0.0276,0.0618,0.0567,0.0709,0.0743,0.0753,0.0819,0.044,0.0605,0.0604,0.0604,0.0604,0.0603,0,-0.1157,-0.1206,-0.1272,-0.1333,-0.1375,-0.1385,-0.1385,-0.1339,-0.1247,-0.1077,-0.0897,-0.0404,0.0,0.0361,0.0821,0.1005,0.1028,0.1094,0.1122,0.1153,0.082,0.0817,0.1048,0.1048,0.1048,0.1048,0.1048,0.1048,-0.1174,-0.1242,-0.1279,-0.1354,-0.1391,-0.1401,-0.1384,-0.1286,-0.115,-0.0814,-0.051,-0.0278,0.0228,0.0906,0.1314,0.1355,0.1491,0.1493,0.1561,0.1319,0.1284,0.1252,0.1261,0.1581,0.1582,0.188,0.1883,0.1885]}],[{"header":{"parameterUnit":"m.s-1","parameterCategory":2,"la1":30.2991,"la2":30.254,"lo1":-89.0895,"lo2":-89.0444,"dy":0.0017,"dx":0.0017,"nx":28,"ny":28,"refTime":"2024-11-30T09:00:00:Z","depth":"2","parameterNumber":2,"parameterNumberName":"U-component_of_CURRENTS"},"data":[0,0,0,0,0,0,0,0,0,0,0,0,0,0,0,0,0,0,0,0,0,0,0,0,0,0,0,0,0,0,0,0,0,0,0,0,0,0,0,0,0,0,0,0,0,0,0,0,0,0,0,0,0,0,0,0,0,0,-0.2333,-0.2333,0,-0.2344,-0.2344,-0.2344,-0.2313,-0.2312,-0.2312,-0.2311,-0.2284,-0.2284,-0.2284,0,0,0,0,0,0,0,0,0,0,0,0,0,-0.2291,-0.2292,-0.2333,-0.2333,-0.2333,-0.2344,-0.2344,-0.2344,-0.2313,-0.2312,-0.2311,-0.2311,-0.2284,-0.2284,-0.2284,0,0,0,0,0,0,0,0,0,0,0,0,0,-0.2304,-0.2292,-0.2333,-0.2321,-0.232,-0.2344,-0.2344,-0.2344,-0.2314,-0.2312,-0.2311,-0.231,-0.2284,-0.2284,-0.2284,-0.2307,0,0,-0.2284,-0.2284,0,0,0,0,0,0,0,0,-0.2304,-0.2306,-0.2322,-0.2322,-0.2321,-0.2328,-0.232,-0.233,-0.2314,-0.2314,-0.2311,-0.231,-0.2298,-0.2296,-0.2299,-0.2306,-0.2305,-0.2284,-0.2284,-0.2284,-0.2284,0,0,0,0,0,0,0,-0.2303,-0.2305,-0.2335,-0.2323,-0.2322,-0.2317,-0.2318,-0.2321,-0.231,-0.2314,-0.2312,-0.2317,-0.2296,-0.2299,-0.2298,-0.2305,-0.2284,-0.2284,-0.2284,-0.2284,-0.2313,-0.2314,0,0,0,0,0,0,-0.2307,-0.2304,-0.2335,-0.2336,-0.2312,-0.2319,-0.2319,-0.2325,-0.231,-0.2308,-0.2318,-0.2316,-0.2299,-0.2298,-0.2297,-0.2312,-0.2284,-0.2284,-0.2284,-0.2312,-0.2313,-0.2314,0,0,0,0,0,0,-0.2306,-0.2309,-0.2334,-0.2322,-0.2325,-0.2321,-0.2328,-0.2326,-0.2327,-0.2314,-0.231,-0.2321,-0.2298,-0.2297,-0.2301,-0.2311,-0.2284,-0.2284,-0.2311,-0.2313,-0.2314,-0.2351,0,0,0,0,0,0,-0.2305,-0.2309,-0.2312,-0.2322,-0.2326,-0.235,-0.2329,-0.2327,-0.2333,-0.233,-0.2316,-0.2312,-0.2297,-0.2301,-0.2301,-0.2311,-0.2284,-0.231,-0.2312,-0.2313,-0.2348,-0.2353,-0.2357,0,0,0,0,0,-0.2303,-0.2312,-0.2312,-0.2315,-0.233,-0.2351,-0.2352,-0.2344,-0.2334,-0.2339,-0.233,-0.2312,-0.231,-0.2302,-0.2302,-0.2312,-0.231,-0.2312,-0.2313,-0.2347,-0.2352,-0.2357,0,0,0,0,0,0,-0.2294,-0.2311,-0.231,-0.2323,-0.2337,-0.2346,-0.235,-0.235,-0.2349,-0.2342,-0.2326,-0.2322,-0.2329,-0.232,-0.2312,-0.2324,-0.2306,-0.2308,-0.2332,-0.2336,-0.2341,-0.2335,-0.2284,0,0,0,0,0,-0.2296,-0.2304,-0.2323,-0.2331,-0.2341,-0.2348,-0.2354,-0.2354,-0.2357,-0.2354,-0.2347,-0.2339,-0.2339,-0.2336,-0.2334,-0.2345,-0.2325,-0.235,-0.2355,-0.2358,-0.2354,-0.2343,-0.2345,-0.232,-0.232,-0.232,0,0,-0.2294,-0.2304,-0.2308,-0.233,-0.2338,-0.2357,-0.2348,-0.2363,-0.2374,-0.2353,-0.2361,-0.2356,-0.2346,-0.2354,-0.2356,-0.2346,-0.2354,-0.236,-0.2363,-0.2357,-0.2345,-0.2347,-0.2349,-0.2321,-0.2321,-0.232,0,0,-0.2297,-0.2306,-0.2315,-0.2333,-0.2353,-0.2363,-0.237,-0.2387,-0.2387,-0.2403,-0.2388,-0.2388,-0.2392,-0.2383,-0.238,-0.2408,-0.2378,-0.2409,-0.2424,-0.2413,-0.2415,-0.2416,-0.2389,-0.2387,-0.2409,-0.2409,-0.241,0,-0.2292,-0.2308,-0.2321,-0.2341,-0.2354,-0.2368,-0.2386,-0.2398,-0.2412,-0.2414,-0.2408,-0.2411,-0.2404,-0.2408,-0.2416,-0.2416,-0.2399,-0.2406,-0.2418,-0.2419,-0.2419,-0.2391,-0.2389,-0.2411,-0.2411,-0.2411,-0.2411,0,-0.2305,-0.2321,-0.233,-0.2357,-0.2375,-0.2394,-0.2418,-0.2433,-0.2439,-0.2445,-0.2454,-0.2448,-0.2444,-0.2448,-0.244,-0.2445,-0.2428,-0.2426,-0.2403,-0.2424,-0.2393,-0.239,-0.2414,-0.2414,-0.2413,-0.2412,0,0,-0.2279,-0.2328,-0.233,-0.2344,-0.2385,-0.2399,-0.243,-0.2454,-0.2466,-0.2477,-0.2486,-0.2489,-0.2481,-0.2477,-0.2469,-0.2462,-0.2454,-0.2448,-0.2447,-0.2417,-0.2417,-0.2332,-0.2321,-0.2455,-0.2455,-0.2455,-0.2392,0,-0.228,-0.2313,-0.2341,-0.237,-0.2388,-0.242,-0.2445,-0.247,-0.2486,-0.2501,-0.2498,-0.2503,-0.2494,-0.2492,-0.2486,-0.2468,-0.2449,-0.247,-0.2405,-0.2402,-0.2321,-0.2315,-0.215,-0.2074,-0.2389,-0.2388,-0.2388,0,-0.2274,-0.2299,-0.2328,-0.2373,-0.2384,-0.2405,-0.2441,-0.2468,-0.2499,-0.2511,-0.2519,-0.2519,-0.2517,-0.2505,-0.2472,-0.2486,-0.2451,-0.2431,-0.2428,-0.2331,-0.2312,-0.2106,-0.2057,-0.2383,-0.2383,-0.2383,-0.2384,0,-0.2231,-0.2284,-0.2302,-0.2319,-0.2377,-0.2392,-0.2422,-0.2462,-0.2478,-0.2514,-0.2522,-0.2527,-0.2517,-0.2493,-0.2453,-0.2464,-0.2405,-0.2413,-0.2297,-0.2291,-0.2126,-0.2105,-0.2374,-0.2374,-0.2374,-0.2374,-0.2374,0,-0.221,-0.2222,-0.2283,-0.2292,-0.231,-0.2366,-0.2385,-0.242,-0.2463,-0.2471,-0.2515,-0.2507,-0.2514,-0.2484,-0.2452,-0.2356,-0.2399,-0.2287,-0.2266,-0.2134,-0.2115,-0.2368,-0.2368,-0.2372,-0.2372,-0.2373,-0.2373,0,-0.2145,-0.2191,-0.2211,-0.2271,-0.2287,-0.2296,-0.2352,-0.2364,-0.2424,-0.2435,-0.2445,-0.2483,-0.2443,-0.2428,-0.2381,-0.2331,-0.2267,-0.2218,-0.2055,-0.2016,-0.216,-0.2164,-0.2085,-0.2081,-0.2078,-0.2076,-0.2073,0,-0.2109,-0.2114,-0.2171,-0.2175,-0.2197,-0.2227,-0.224,-0.232,-0.2338,-0.2401,-0.2392,-0.2387,-0.2335,-0.2244,-0.2168,-0.2077,-0.2163,-0.1879,-0.1868,-0.2142,-0.213,-0.2138,-0.2145,-0.1664,-0.1659,-0.1654,-0.1651,0,-0.2028,-0.2051,-0.2065,-0.208,-0.2094,-0.2113,-0.2147,-0.2156,-0.2241,-0.225,-0.2243,-0.2211,-0.214,-0.1968,-0.1873,-0.1808,-0.1888,-0.1786,-0.2101,-0.1769,-0.1741,-0.1732,-0.1753,-0.1612,-0.1616,-0.1619,-0.1621,-0.1622,-0.1948,-0.1937,-0.1957,-0.1956,-0.1978,-0.1974,-0.1938,-0.1984,-0.1979,-0.1957,-0.2029,-0.1924,-0.1898,-0.1654,-0.1551,-0.1481,-0.1617,-0.1547,-0.1562,-0.1581,-0.155,-0.1519,-0.1341,-0.1343,-0.1345,-0.1347,-0.1349,0,-0.1835,-0.1833,-0.1829,-0.182,-0.1787,-0.1845,-0.1845,-0.1784,-0.1721,-0.173,-0.1686,-0.1493,-0.1359,-0.1344,-0.1167,-0.1125,-0.113,-0.1081,-0.1092,-0.113,-0.1164,-0.1114,-0.0789,-0.0787,-0.0785,-0.0784,0,0,-0.1773,-0.1725,-0.1722,-0.1625,-0.1615,-0.1519,-0.1485,-0.1423,-0.1394,-0.1288,-0.123,-0.1294,-0.1308,-0.1058,-0.0988,-0.0859,-0.0989,-0.0812,-0.1261,-0.1313,-0.1345,-0.143,-0.1395,0,0,0,0,0]},{"header":{"parameterUnit":"m.s-1","parameterCategory":2,"la1":30.2991,"la2":30.254,"lo1":-89.0895,"lo2":-89.0444,"dy":0.0017,"dx":0.0017,"nx":28,"ny":28,"refTime":"2024-11-30T09:00:00:Z","depth":"2","parameterNumber":3,"parameterNumberName":"V-component_of_CURRENTS"},"data":[0,0,0,0,0,0,0,0,0,0,0,0,0,0,0,0,0,0,0,0,0,0,0,0,0,0,0,0,0,0,0,0,0,0,0,0,0,0,0,0,0,0,0,0,0,0,0,0,0,0,0,0,0,0,0,0,0,0,-0.0409,-0.0408,0,-0.0342,-0.0341,-0.034,-0.0296,-0.0295,-0.0295,-0.0295,-0.0186,-0.0183,-0.0181,0,0,0,0,0,0,0,0,0,0,0,0,0,-0.0443,-0.0443,-0.0409,-0.0408,-0.0407,-0.0342,-0.0341,-0.034,-0.0296,-0.0295,-0.0295,-0.0295,-0.0187,-0.0184,-0.018,0,0,0,0,0,0,0,0,0,0,0,0,0,-0.0407,-0.0443,-0.0409,-0.0378,-0.0375,-0.0342,-0.0341,-0.034,-0.0296,-0.0295,-0.0295,-0.0295,-0.0188,-0.0184,-0.018,-0.0161,0,0,-0.0167,-0.0166,0,0,0,0,0,0,0,0,-0.0409,-0.0405,-0.0383,-0.038,-0.0376,-0.0328,-0.0313,-0.0278,-0.0296,-0.0325,-0.0295,-0.0295,-0.023,-0.0223,-0.021,-0.0156,-0.0151,-0.0167,-0.0165,-0.0163,-0.0162,0,0,0,0,0,0,0,-0.0411,-0.0408,-0.0381,-0.0383,-0.0378,-0.0349,-0.0343,-0.0306,-0.0279,-0.0322,-0.0319,-0.0313,-0.0228,-0.0214,-0.0207,-0.015,-0.0167,-0.0164,-0.0161,-0.016,-0.0063,-0.0063,0,0,0,0,0,0,-0.0425,-0.041,-0.0384,-0.0379,-0.0393,-0.0349,-0.0343,-0.0343,-0.028,-0.027,-0.0314,-0.0311,-0.0221,-0.0212,-0.0203,-0.0174,-0.0163,-0.0159,-0.0157,-0.0063,-0.0063,-0.0063,0,0,0,0,0,0,-0.0426,-0.0423,-0.0386,-0.0394,-0.0387,-0.0349,-0.0349,-0.0342,-0.0329,-0.0274,-0.0263,-0.0308,-0.0221,-0.0209,-0.0172,-0.017,-0.0157,-0.0154,-0.0063,-0.0063,-0.0063,-0.0119,0,0,0,0,0,0,-0.0427,-0.0424,-0.043,-0.0395,-0.0387,-0.0373,-0.0349,-0.0341,-0.0326,-0.0323,-0.0266,-0.0255,-0.0219,-0.0178,-0.0168,-0.0164,-0.015,-0.0064,-0.0063,-0.0063,-0.0117,-0.012,-0.0123,0,0,0,0,0,-0.0429,-0.0439,-0.0431,-0.0427,-0.0396,-0.0373,-0.0366,-0.0337,-0.0326,-0.0324,-0.0285,-0.0257,-0.0169,-0.0175,-0.0163,-0.0158,-0.0064,-0.0063,-0.0063,-0.0116,-0.012,-0.0123,0,0,0,0,0,0,-0.0453,-0.0434,-0.0425,-0.0428,-0.0405,-0.0366,-0.0362,-0.0342,-0.031,-0.0307,-0.0255,-0.0242,-0.021,-0.0176,-0.0184,-0.0129,-0.0112,-0.0109,-0.0156,-0.0159,-0.0162,-0.0176,-0.0147,0,0,0,0,0,-0.0463,-0.0468,-0.044,-0.0442,-0.0434,-0.04,-0.0387,-0.0369,-0.0336,-0.0322,-0.0282,-0.0238,-0.0199,-0.0175,-0.0138,-0.0106,-0.0069,-0.0094,-0.0098,-0.0101,-0.0103,-0.005,-0.0049,-0.0062,-0.0062,-0.0062,0,0,-0.0473,-0.0464,-0.0465,-0.0448,-0.0428,-0.0423,-0.0391,-0.0379,-0.0369,-0.0314,-0.029,-0.025,-0.0195,-0.0162,-0.0144,-0.0132,-0.0077,-0.01,-0.0103,-0.0104,-0.0049,-0.0048,-0.0047,-0.0062,-0.0062,-0.0062,0,0,-0.0497,-0.0487,-0.0501,-0.0487,-0.0466,-0.0443,-0.0443,-0.0408,-0.0388,-0.0361,-0.0319,-0.0278,-0.0222,-0.0179,-0.015,-0.0147,-0.01,-0.0136,-0.0156,-0.0105,-0.0104,-0.0102,-0.0054,-0.0047,-0.0133,-0.0133,-0.0133,0,-0.051,-0.0523,-0.0499,-0.0506,-0.0499,-0.0457,-0.0464,-0.0437,-0.0393,-0.0374,-0.0361,-0.0273,-0.0228,-0.0177,-0.0177,-0.0154,-0.012,-0.0149,-0.011,-0.0108,-0.0105,-0.0056,-0.0048,-0.0135,-0.0135,-0.0135,-0.0135,0,-0.0544,-0.0552,-0.0557,-0.0554,-0.0541,-0.054,-0.0503,-0.0484,-0.0456,-0.0422,-0.0372,-0.031,-0.0256,-0.0234,-0.0204,-0.0161,-0.0143,-0.0126,-0.0104,-0.0107,-0.0055,-0.0046,-0.0139,-0.0138,-0.0138,-0.0137,0,0,-0.0578,-0.0582,-0.0584,-0.0593,-0.0568,-0.0562,-0.0544,-0.0512,-0.0497,-0.0446,-0.0417,-0.0346,-0.031,-0.0275,-0.0226,-0.0179,-0.013,-0.015,-0.0146,-0.011,-0.0019,0.0013,0.0027,-0.011,-0.0108,-0.0107,0.0009,0,-0.0611,-0.0645,-0.0629,-0.0648,-0.0661,-0.0618,-0.0605,-0.0568,-0.0525,-0.0484,-0.0407,-0.0364,-0.0324,-0.03,-0.0246,-0.0161,-0.0109,-0.0163,-0.0015,-0.0011,0.0012,0.0037,0.0021,0.0125,0.0019,0.002,0.0021,0,-0.0649,-0.0668,-0.0702,-0.0702,-0.0702,-0.0702,-0.0672,-0.0653,-0.058,-0.0545,-0.0482,-0.0421,-0.034,-0.0311,-0.0164,-0.0202,-0.0119,-0.0051,-0.0044,0.0011,0.0038,0.0112,0.0146,0.0037,0.0036,0.0035,0.0034,0,-0.0695,-0.0714,-0.0746,-0.0747,-0.074,-0.0741,-0.0729,-0.0674,-0.0655,-0.0583,-0.0558,-0.0452,-0.0397,-0.0284,-0.0142,-0.0153,0.0022,0.0028,0.0141,0.0144,0.0173,0.0177,0.0134,0.0134,0.0133,0.0133,0.0133,0,-0.0741,-0.0763,-0.0774,-0.0792,-0.0821,-0.0793,-0.0799,-0.0767,-0.0716,-0.0689,-0.0596,-0.0543,-0.0389,-0.0267,-0.0147,0.0031,0.0025,0.0146,0.018,0.0153,0.0154,0.0109,0.0105,0.0137,0.0136,0.0136,0.0135,0,-0.0788,-0.0795,-0.0833,-0.0843,-0.0848,-0.0868,-0.0859,-0.0855,-0.0801,-0.0763,-0.0743,-0.0603,-0.0441,-0.0276,-0.0076,0.0029,0.0189,0.0253,0.021,0.0238,0.0276,0.0267,0.0387,0.0389,0.0391,0.0393,0.0394,0,-0.0816,-0.0844,-0.088,-0.0906,-0.0915,-0.0937,-0.0948,-0.0908,-0.0893,-0.0791,-0.077,-0.061,-0.0474,-0.0168,0.0039,0.0266,0.0257,0.0376,0.0355,0.0282,0.0304,0.0292,0.0282,0.0374,0.0375,0.0376,0.0377,0,-0.0864,-0.0877,-0.0909,-0.0971,-0.1,-0.1025,-0.1031,-0.103,-0.0966,-0.0904,-0.0782,-0.0663,-0.0373,-0.0113,0.0169,0.0296,0.0335,0.0401,0.0356,0.0305,0.0278,0.0296,0.0285,0.0384,0.0383,0.0383,0.0383,0.0382,-0.0891,-0.0931,-0.0975,-0.1027,-0.1065,-0.1093,-0.1095,-0.1069,-0.1023,-0.0893,-0.0788,-0.0564,-0.0348,0.0081,0.0264,0.0436,0.043,0.0477,0.0472,0.0466,0.0436,0.0413,0.0539,0.0539,0.0539,0.054,0.054,0,-0.0921,-0.0965,-0.1024,-0.1081,-0.1121,-0.113,-0.113,-0.1088,-0.1009,-0.0861,-0.0704,-0.0418,-0.0134,0.0094,0.0376,0.0529,0.0504,0.0551,0.0485,0.0478,0.0471,0.0438,0.0544,0.0545,0.0545,0.0545,0,0,-0.0938,-0.0999,-0.1032,-0.1106,-0.1143,-0.1158,-0.1146,-0.1059,-0.0937,-0.0753,-0.057,-0.0361,-0.0095,0.0101,0.0284,0.0427,0.0411,0.0439,0.0423,0.0316,0.0307,0.042,0.0361,0,0,0,0,0]}],[{"header":{"parameterUnit":"m.s-1","parameterCategory":2,"la1":30.2991,"la2":30.254,"lo1":-89.0895,"lo2":-89.0444,"dy":0.0017,"dx":0.0017,"nx":28,"ny":28,"refTime":"2024-11-30T09:00:00:Z","depth":"4","parameterNumber":2,"parameterNumberName":"U-component_of_CURRENTS"},"data":[0,0,0,0,0,0,0,0,0,0,0,0,0,0,0,0,0,0,0,0,0,0,0,0,0,0,0,0,0,0,0,0,0,0,0,0,0,0,0,0,0,0,0,0,0,0,0,0,0,0,0,0,0,0,0,0,0,0,-0.1672,-0.1672,0,-0.1724,-0.1725,-0.1725,-0.1755,-0.1755,-0.1756,-0.1756,-0.1808,-0.1809,-0.181,0,0,0,0,0,0,0,0,0,0,0,0,0,-0.1598,-0.1599,-0.1671,-0.1672,-0.1673,-0.1724,-0.1725,-0.1725,-0.1755,-0.1755,-0.1756,-0.1756,-0.1807,-0.1809,-0.181,0,0,0,0,0,0,0,0,0,0,0,0,0,-0.1637,-0.16,-0.1671,-0.1695,-0.1698,-0.1724,-0.1725,-0.1726,-0.1755,-0.1755,-0.1756,-0.1756,-0.1807,-0.1809,-0.181,-0.1815,0,0,-0.1816,-0.1817,0,0,0,0,0,0,0,0,-0.1635,-0.164,-0.1691,-0.1693,-0.1696,-0.1735,-0.1718,-0.1756,-0.1755,-0.1732,-0.1756,-0.1756,-0.1784,-0.1788,-0.1795,-0.1817,-0.182,-0.1816,-0.1817,-0.1818,-0.1818,0,0,0,0,0,0,0,-0.1632,-0.1638,-0.1691,-0.1692,-0.1695,-0.1704,-0.1709,-0.1725,-0.1754,-0.1734,-0.1737,-0.1744,-0.1785,-0.1793,-0.1796,-0.182,-0.1816,-0.1818,-0.1819,-0.1819,-0.1905,-0.1906,0,0,0,0,0,0,-0.1628,-0.1635,-0.1689,-0.1693,-0.1667,-0.1705,-0.1711,-0.1721,-0.1754,-0.176,-0.1744,-0.1746,-0.179,-0.1794,-0.1798,-0.1862,-0.1818,-0.182,-0.1821,-0.1904,-0.1905,-0.1906,0,0,0,0,0,0,-0.1626,-0.1632,-0.1687,-0.1666,-0.1674,-0.1706,-0.1717,-0.1722,-0.1757,-0.1762,-0.1768,-0.1776,-0.179,-0.1796,-0.1836,-0.1862,-0.182,-0.1822,-0.1902,-0.1904,-0.1906,-0.1954,0,0,0,0,0,0,-0.1624,-0.1631,-0.165,-0.1666,-0.1675,-0.1719,-0.1717,-0.1723,-0.176,-0.1763,-0.1791,-0.1795,-0.1791,-0.1834,-0.1838,-0.1864,-0.1823,-0.1901,-0.1903,-0.1905,-0.1951,-0.1957,-0.1962,0,0,0,0,0,-0.1621,-0.164,-0.1651,-0.1658,-0.1695,-0.172,-0.1726,-0.1748,-0.1761,-0.1781,-0.1802,-0.1796,-0.1851,-0.1836,-0.1841,-0.1868,-0.1899,-0.1902,-0.1905,-0.1948,-0.1956,-0.1962,0,0,0,0,0,0,-0.1619,-0.1645,-0.1657,-0.1685,-0.1709,-0.1726,-0.175,-0.1766,-0.1799,-0.181,-0.1814,-0.182,-0.1862,-0.1861,-0.1845,-0.1899,-0.1873,-0.1877,-0.1904,-0.1911,-0.1917,-0.1906,-0.1825,0,0,0,0,0,-0.1627,-0.1649,-0.1673,-0.1698,-0.1713,-0.1738,-0.1758,-0.1774,-0.1798,-0.1815,-0.1836,-0.1856,-0.1873,-0.189,-0.1903,-0.1938,-0.1915,-0.1958,-0.1963,-0.1968,-0.1963,-0.1955,-0.1959,-0.1915,-0.1915,-0.1915,0,0,-0.1634,-0.1652,-0.1666,-0.17,-0.1722,-0.1749,-0.1751,-0.1789,-0.1817,-0.1815,-0.1869,-0.1881,-0.1887,-0.1922,-0.1941,-0.1928,-0.1969,-0.1972,-0.1976,-0.1967,-0.1958,-0.1962,-0.1966,-0.1917,-0.1917,-0.1916,0,0,-0.1648,-0.1677,-0.1697,-0.1721,-0.176,-0.1776,-0.1794,-0.183,-0.1855,-0.1902,-0.1904,-0.1931,-0.1971,-0.1972,-0.1977,-0.2025,-0.2,-0.2038,-0.2062,-0.2056,-0.2059,-0.2061,-0.2035,-0.2034,-0.2043,-0.2043,-0.2043,0,-0.1658,-0.1684,-0.1708,-0.1734,-0.1759,-0.1792,-0.1821,-0.185,-0.1897,-0.1916,-0.1928,-0.1977,-0.1988,-0.2012,-0.203,-0.2037,-0.2024,-0.2035,-0.2062,-0.2064,-0.2065,-0.2038,-0.2037,-0.2045,-0.2045,-0.2045,-0.2044,0,-0.1675,-0.1711,-0.1728,-0.177,-0.18,-0.1834,-0.1872,-0.1912,-0.1949,-0.197,-0.2017,-0.2031,-0.2053,-0.2068,-0.2067,-0.2089,-0.2072,-0.2068,-0.2041,-0.2072,-0.2042,-0.204,-0.2049,-0.2048,-0.2047,-0.2047,0,0,-0.1654,-0.1726,-0.1735,-0.1764,-0.1825,-0.1847,-0.1902,-0.1947,-0.198,-0.2027,-0.2061,-0.2095,-0.2102,-0.2108,-0.2112,-0.2113,-0.2117,-0.2104,-0.2102,-0.2071,-0.2092,-0.1959,-0.1943,-0.2123,-0.2123,-0.2123,-0.2064,0,-0.1663,-0.1715,-0.1751,-0.1808,-0.1837,-0.1889,-0.1932,-0.198,-0.2022,-0.2065,-0.2084,-0.2117,-0.2118,-0.2135,-0.2137,-0.2127,-0.2115,-0.2133,-0.2071,-0.2068,-0.1941,-0.1938,-0.2124,-0.2062,-0.2062,-0.2061,-0.2061,0,-0.1657,-0.1697,-0.1754,-0.1826,-0.1845,-0.1888,-0.1959,-0.2002,-0.2061,-0.2093,-0.2126,-0.2142,-0.216,-0.2154,-0.2137,-0.2152,-0.2123,-0.2107,-0.2104,-0.1958,-0.1931,-0.2025,-0.2057,-0.2057,-0.2058,-0.2058,-0.2058,0,-0.1612,-0.1693,-0.1741,-0.1768,-0.1855,-0.1896,-0.1945,-0.2012,-0.2045,-0.211,-0.2134,-0.2159,-0.217,-0.2154,-0.2126,-0.2138,-0.2089,-0.2097,-0.1941,-0.1932,-0.205,-0.2047,-0.2065,-0.2065,-0.2065,-0.2066,-0.2066,0,-0.1584,-0.1625,-0.1731,-0.1755,-0.181,-0.1882,-0.1939,-0.1991,-0.2058,-0.2078,-0.2142,-0.2142,-0.2173,-0.2152,-0.2125,-0.2013,-0.2083,-0.1928,-0.1903,-0.2071,-0.2073,-0.2047,-0.2046,-0.2063,-0.2064,-0.2064,-0.2065,0,-0.1515,-0.1589,-0.1647,-0.1755,-0.179,-0.183,-0.1927,-0.1955,-0.2036,-0.2063,-0.2083,-0.2131,-0.2095,-0.2093,-0.2055,-0.1985,-0.1914,-0.1855,-0.202,-0.2008,-0.1761,-0.1764,-0.167,-0.1665,-0.166,-0.1657,-0.1653,0,-0.1478,-0.1504,-0.1629,-0.1661,-0.1715,-0.1788,-0.1826,-0.1928,-0.195,-0.2027,-0.2018,-0.2026,-0.2034,-0.1859,-0.1889,-0.1803,-0.1782,-0.1735,-0.1757,-0.1734,-0.1719,-0.1729,-0.1737,-0.1646,-0.1645,-0.1644,-0.1643,0,-0.14,-0.1463,-0.1509,-0.1579,-0.1636,-0.1684,-0.175,-0.1751,-0.1846,-0.1941,-0.1883,-0.1844,-0.1794,-0.1752,-0.1691,-0.164,-0.1766,-0.1688,-0.1697,-0.1717,-0.1704,-0.1696,-0.1709,-0.1627,-0.1629,-0.1631,-0.1632,0,-0.1339,-0.1353,-0.1425,-0.1467,-0.1538,-0.1547,-0.16,-0.1611,-0.1643,-0.1735,-0.1708,-0.1717,-0.1769,-0.1664,-0.1614,-0.1547,-0.1525,-0.1477,-0.1497,-0.1515,-0.1492,-0.1454,-0.1259,0,0,0,0,0,-0.1268,-0.1267,-0.1302,-0.1341,-0.1405,-0.144,-0.1528,-0.1582,-0.1679,-0.1588,-0.1641,-0.1585,-0.1502,-0.1516,-0.1408,-0.1545,-0.1536,-0.1415,-0.1495,-0.1541,-0.1559,-0.1546,0,0,0,0,0,0,-0.1218,-0.125,-0.1257,-0.1222,-0.122,-0.1268,-0.1317,-0.1384,-0.1345,-0.1447,-0.1405,-0.1483,-0.1424,-0.1524,-0.137,-0.1372,-0.1388,-0.1436,-0.1431,-0.1531,-0.1547,-0.1561,-0.1555,0,0,0,0,0]},{"header":{"parameterUnit":"m.s-1","parameterCategory":2,"la1":30.2991,"la2":30.254,"lo1":-89.0895,"lo2":-89.0444,"dy":0.0017,"dx":0.0017,"nx":28,"ny":28,"refTime":"2024-11-30T09:00:00:Z","depth":"4","parameterNumber":3,"parameterNumberName":"V-component_of_CURRENTS"},"data":[0,0,0,0,0,0,0,0,0,0,0,0,0,0,0,0,0,0,0,0,0,0,0,0,0,0,0,0,0,0,0,0,0,0,0,0,0,0,0,0,0,0,0,0,0,0,0,0,0,0,0,0,0,0,0,0,0,0,-0.0279,-0.0279,0,-0.0239,-0.0239,-0.0238,-0.021,-0.021,-0.021,-0.021,-0.0131,-0.013,-0.0128,0,0,0,0,0,0,0,0,0,0,0,0,0,-0.029,-0.029,-0.0279,-0.0279,-0.0278,-0.0239,-0.0239,-0.0238,-0.021,-0.021,-0.021,-0.021,-0.0132,-0.013,-0.0127,0,0,0,0,0,0,0,0,0,0,0,0,0,-0.0271,-0.029,-0.0279,-0.0261,-0.0258,-0.0239,-0.0239,-0.0238,-0.0211,-0.021,-0.021,-0.021,-0.0133,-0.013,-0.0127,-0.0113,0,0,-0.0118,-0.0117,0,0,0,0,0,0,0,0,-0.0272,-0.027,-0.0264,-0.0262,-0.0259,-0.023,-0.0213,-0.0194,-0.0211,-0.0228,-0.021,-0.021,-0.0162,-0.0156,-0.0149,-0.0109,-0.0106,-0.0118,-0.0116,-0.0115,-0.0114,0,0,0,0,0,0,0,-0.0273,-0.0271,-0.0263,-0.0263,-0.0261,-0.024,-0.0237,-0.021,-0.0195,-0.0226,-0.0224,-0.0221,-0.016,-0.0152,-0.0146,-0.0105,-0.0118,-0.0115,-0.0113,-0.0112,-0.0046,-0.0046,0,0,0,0,0,0,-0.0282,-0.0273,-0.0264,-0.0261,-0.0266,-0.024,-0.0237,-0.0239,-0.0196,-0.019,-0.0222,-0.022,-0.0157,-0.015,-0.0144,-0.0124,-0.0115,-0.0112,-0.011,-0.0046,-0.0046,-0.0046,0,0,0,0,0,0,-0.0283,-0.0282,-0.0266,-0.0266,-0.0263,-0.024,-0.0243,-0.0239,-0.0234,-0.0193,-0.0186,-0.0222,-0.0156,-0.0148,-0.0124,-0.0121,-0.0111,-0.0108,-0.0046,-0.0046,-0.0046,-0.0085,0,0,0,0,0,0,-0.0283,-0.0282,-0.029,-0.0267,-0.0263,-0.0261,-0.0243,-0.0238,-0.0232,-0.023,-0.0191,-0.0183,-0.0155,-0.0129,-0.0121,-0.0116,-0.0106,-0.0046,-0.0046,-0.0046,-0.0083,-0.0086,-0.0088,0,0,0,0,0,-0.0284,-0.0295,-0.0291,-0.029,-0.0274,-0.0261,-0.0257,-0.0239,-0.0233,-0.0234,-0.0207,-0.0185,-0.0123,-0.0127,-0.0118,-0.0112,-0.0046,-0.0046,-0.0046,-0.0082,-0.0085,-0.0088,0,0,0,0,0,0,-0.0301,-0.0292,-0.0288,-0.0295,-0.0283,-0.0257,-0.0258,-0.0245,-0.0225,-0.0225,-0.0185,-0.0176,-0.0155,-0.0129,-0.0134,-0.0093,-0.0081,-0.0079,-0.0111,-0.0114,-0.0116,-0.012,-0.0103,0,0,0,0,0,-0.031,-0.0319,-0.0301,-0.0308,-0.0305,-0.0283,-0.0277,-0.0266,-0.0244,-0.0236,-0.0208,-0.0177,-0.0148,-0.0129,-0.0104,-0.008,-0.0045,-0.007,-0.0072,-0.0075,-0.0072,-0.0015,-0.0012,-0.0047,-0.0047,-0.0047,0,0,-0.0319,-0.0315,-0.032,-0.0313,-0.0303,-0.0301,-0.0279,-0.0275,-0.0269,-0.023,-0.0215,-0.0188,-0.0146,-0.0122,-0.0109,-0.0098,-0.0049,-0.0075,-0.0077,-0.0073,-0.0015,-0.0011,-0.0008,-0.0047,-0.0047,-0.0047,0,0,-0.0339,-0.0338,-0.0351,-0.0344,-0.0335,-0.032,-0.0322,-0.0301,-0.0287,-0.0272,-0.024,-0.0209,-0.0173,-0.0133,-0.011,-0.0109,-0.0069,-0.0106,-0.0113,-0.0058,-0.0055,-0.0051,-0.0013,-0.0006,-0.01,-0.01,-0.01,0,-0.035,-0.0363,-0.0351,-0.0359,-0.0356,-0.0332,-0.0339,-0.0321,-0.0294,-0.0277,-0.0275,-0.0205,-0.0174,-0.0124,-0.0127,-0.0113,-0.0084,-0.0107,-0.0061,-0.0057,-0.0052,-0.0014,-0.0005,-0.0102,-0.0102,-0.0102,-0.0102,0,-0.0375,-0.0386,-0.0392,-0.0395,-0.0389,-0.0393,-0.0368,-0.0357,-0.034,-0.0314,-0.0274,-0.0228,-0.0183,-0.0168,-0.0149,-0.0101,-0.0092,-0.0076,-0.0054,-0.0051,-0.0011,-0.0002,-0.0105,-0.0104,-0.0104,-0.0103,0,0,-0.0398,-0.041,-0.0413,-0.0421,-0.041,-0.0408,-0.0396,-0.0371,-0.0357,-0.0322,-0.0293,-0.024,-0.0212,-0.0184,-0.0146,-0.0097,-0.0049,-0.0081,-0.0077,-0.0045,0.0061,0.0042,0.0051,-0.0026,-0.0024,-0.0023,0.0073,0,-0.0421,-0.0451,-0.0443,-0.0461,-0.0472,-0.0445,-0.0436,-0.0408,-0.0377,-0.0342,-0.0277,-0.0242,-0.0217,-0.0198,-0.0144,-0.0076,-0.0024,-0.0077,0.0055,0.0058,0.0041,0.0061,-0.0018,0.008,0.0082,0.0084,0.0085,0,-0.0446,-0.0463,-0.0494,-0.0497,-0.0498,-0.0504,-0.048,-0.0466,-0.0405,-0.0378,-0.0322,-0.0274,-0.02,-0.0182,-0.0051,-0.0089,-0.0019,0.0038,0.0044,0.0048,0.0058,0.008,0.0103,0.0102,0.01,0.0099,0.0098,0,-0.0472,-0.0493,-0.0521,-0.0525,-0.0526,-0.053,-0.0525,-0.0481,-0.0466,-0.0401,-0.038,-0.0283,-0.0241,-0.0136,-0.0031,-0.0038,0.0113,0.0124,0.0179,0.0178,0.0183,0.0178,0.0228,0.0228,0.0228,0.0227,0.0227,0,-0.0496,-0.0517,-0.0542,-0.0558,-0.0586,-0.0569,-0.0577,-0.0552,-0.051,-0.0488,-0.0407,-0.0363,-0.0228,-0.0129,-0.0028,0.0097,0.012,0.0184,0.0207,0.0162,0.0154,0.0189,0.0184,0.0231,0.023,0.0229,0.0229,0,-0.0519,-0.0535,-0.0571,-0.0593,-0.0604,-0.0625,-0.063,-0.0625,-0.0584,-0.0552,-0.0534,-0.0419,-0.0291,-0.0153,0.002,0.0091,0.022,0.0263,0.0195,0.0212,0.0248,0.024,0.0337,0.0337,0.0337,0.0338,0.0338,0,-0.0531,-0.0556,-0.0608,-0.0639,-0.0656,-0.0684,-0.07,-0.0672,-0.0659,-0.0582,-0.0562,-0.044,-0.0351,-0.0114,0.0022,0.0219,0.0244,0.0303,0.0287,0.0249,0.0263,0.0253,0.0245,0.0338,0.0338,0.0338,0.0338,0,-0.0553,-0.0579,-0.0611,-0.0681,-0.0719,-0.0748,-0.0764,-0.0758,-0.0711,-0.0679,-0.0565,-0.0436,-0.029,-0.0111,0.0037,0.0178,0.0259,0.0306,0.0307,0.0292,0.0252,0.0263,0.0254,0.0339,0.0339,0.0339,0.0339,0,-0.0567,-0.0602,-0.0655,-0.0708,-0.0764,-0.0792,-0.0796,-0.0763,-0.0738,-0.0643,-0.0607,-0.0438,-0.0336,-0.0131,0.0007,0.0138,0.0171,0.0207,0.0213,0.0214,0.0143,0.0071,0.0132,0,0,0,0,0,-0.0574,-0.0615,-0.0674,-0.0731,-0.0787,-0.0812,-0.0825,-0.0813,-0.0772,-0.0694,-0.0643,-0.0499,-0.0275,-0.017,-0.004,-0.0006,0.0174,0.0148,0.0213,0.0343,0.0342,0.0277,0,0,0,0,0,0,-0.0581,-0.064,-0.0672,-0.0737,-0.0777,-0.0826,-0.0834,-0.0807,-0.0746,-0.0687,-0.0559,-0.0481,-0.0259,-0.0348,-0.0041,-0.0001,0.0054,0.0258,0.0261,0.0344,0.0343,0.0342,0.0275,0,0,0,0,0]}]]